Other Public Products
Issued by NWS Grand Forks, ND

Home | Current Version | Previous Version | Text Only | Print | Product List | Glossary Off
Versions: 1 2 3 4 5 6 7 8 9 10 11 12 13 14 15 16 17 18 19 20 21 22 23 24 25 26 27 28 29 30 31 32 33 34 35 36 37 38 39 40 41 42 43 44 45 46 47 48 49 50

000
FPUS83 KFGF 270431
OPUFGF
PRAIRIE TO PINES WEATHER ROUNDUP
NATIONAL WEATHER SERVICE EASTERN NORTH DAKOTA/GRAND FORKS ND
1000 PM CST MON JAN 26 2015

 **SATELLITE DATA USED TO AUGMENT SKY COVER AT AUTOMATED STATIONS**
 *****  WEATHER ACROSS EASTERN NORTH DAKOTA  *****

CITY           SKY/WX    TMP DP  RH WIND       PRES   REMARKS
GRAND FORKS    MOCLDY    23  21  93 CALM      30.01R FOG
GRAND FORKS AF CLEAR     21  19  93 S1        30.01S
GRAND CITY NWS NOT AVBL
BUXTON           N/A     26  26  98 CALM        N/A
DEVILS LAKE    PTCLDY    28  25  86 CALM      29.96F
FARGO          PTCLDY    28  25  88 NW3       30.02R
WAHPETON ARPT  FAIR      30  27  86 N3        30.02R
$$

 *****  WEATHER ACROSS CENTRAL AND WESTERN NORTH DAKOTA  *****

CITY           SKY/WX    TMP DP  RH WIND       PRES   REMARKS
JAMESTOWN      CLEAR     28  27  96 SW3       29.98S
BISMARCK       CLEAR     31  30  96 NE5       29.98S
MINOT          CLEAR     32  28  85 SE5       29.92F
MINOT AFB      CLEAR     29  29 100 S6        29.91F WCI  23
GARRISON         N/A     31  29  92 CALM      29.93F
WILLISTON      PTCLDY    31  28  89 E3        29.88F
DICKINSON      PTCLDY    34  30  85 S8        29.90S
HETTINGER      CLEAR     33  29  85 CALM      29.94S
$$

 *****  OTHER OBSERVATIONS NORTHEAST NORTH DAKOTA  *****

CITY           SKY/WX    TMP DP  RH WIND       PRES   REMARKS
WALHALLA         N/A     21  21 100 SE5       29.99S WCI  15
LANGDON        FOG       19  18  93 S10       29.95F VSB 1/2 WCI   8
CAVALIER       FAIR      19  18  93 S3        29.99F
GRAFTON        NOT AVBL
CANDO          FAIR      25  25 100 S5        29.96S WCI  19
FORT TOTTEN      N/A     29  28  95 CALM      29.95S
ROLLA          FAIR      28  28 100 SW5       29.94S WCI  23
RUGBY          FAIR      27  27 100 S5        29.94F WCI  21
 ***** THE ABOVE OBSERVATIONS ARE NON NWS ARE NOT QUALITY
        CONTROLLED AND MAY MIS-REPORT RAIN FOR SNOW...
$$

 *****  OTHER OBSERVATIONS SOUTHEAST NORTH DAKOTA *****

CITY           SKY/WX    TMP DP  RH WIND       PRES   REMARKS
COOPERSTOWN    NOT AVBL
VALLEY CITY    FAIR      28  28 100 CALM      29.99F
OAKES            N/A     30  30 100 W5        30.01R
GWINNER        CLEAR     32  32 100 NE5       30.02R
SHEYENNE NWR     N/A     26  25  97 CALM      29.95S
BUFFALO        NOT AVBL
WYNDMERE         N/A     30  30 100 NW2         N/A
 ***** THE ABOVE OBSERVATIONS ARE NON NWS ARE NOT QUALITY
       CONTROLLED AND MAY MIS-REPORT RAIN FOR SNOW...
$$

  *****  WEATHER ACROSS NORTHERN MINNESOTA  *****

CITY           SKY/WX    TMP DP  RH WIND       PRES   REMARKS
FLAG ISLAND    CLOUDY    25  21  86 W5        29.97R WCI  19
WARROAD        CLOUDY    23  19  86 CALM      29.99R
ROSEAU         CLOUDY    25  19  80 CALM      29.99R
HALLOCK        CLOUDY    25  23  93 CALM      30.00S
THF RVR FALLS  CLOUDY    27  25  93 CALM      29.99S
HALSTAD          N/A     27  25  91 N3          N/A
FOSSTON        CLOUDY    25  23  93 CALM      29.99S
BAUDETTE       CLOUDY    25  21  85 NW7       29.96R WCI  17
WASKISH        CLOUDY    27  25  93 CALM      29.98R
CROOKSTON      CLOUDY    27  25  93 N5        30.02S WCI  21
$$
  *****  WEATHER ACROSS CENTRAL AND WEST MINNESOTA  *****

CITY           SKY/WX    TMP DP  RH WIND       PRES   REMARKS
BEMIDJI        CLOUDY    28  25  87 N5        29.97R WCI  23
PARK RAPIDS    CLOUDY    30  25  81 NW7       29.97R WCI  23
WADENA         CLOUDY    28  25  86 N8        29.97R WCI  20
DETROIT LAKES  CLOUDY    28  28 100 CALM      30.00R
MOORHEAD       PTCLDY    27  27 100 CALM      30.03R
FERGUS FALLS   CLOUDY    28  27  93 N10       30.03S WCI  19
ELBOW LAKE     CLOUDY    29  27  94 N9        29.99S WCI  20
MORRIS MN      FAIR      28  28 100 NW8       29.99R WCI  20
STAPLES        CLOUDY    28  25  86 N6        29.98R WCI  22
WHEATON        PTCLDY    27  27 100 NW5       30.04R WCI  21
$$
  *****  WEATHER ELSEWHERE ACROSS MINNESOTA  *****

CITY           SKY/WX    TMP DP  RH WIND       PRES   REMARKS
DULUTH         CLOUDY    28  23  81 N8        29.91R WCI  20
INTRNTL FALLS  CLOUDY    25  21  85 W7        29.95R WCI  17
ELY            CLOUDY    23  21  93 NW5       29.93R WCI  17
CLOQUET        CLOUDY    28  21  74 N10       29.93R WCI  19
BRAINERD       CLOUDY    31  25  78 N10       29.95R WCI  22
HIBBING        CLOUDY    28  22  78 N8        29.93R WCI  20
ALEXANDRIA     CLOUDY    29  26  89 N12       29.97S WCI  19
SAINT CLOUD    CLOUDY    35  27  72 NW9       29.95R
MINNEAPOLIS    CLOUDY    38  28  67 NW12      29.93R
$$

  *****  WEATHER ACROSS SOUTH DAKOTA  *****

CITY           SKY/WX    TMP DP  RH WIND       PRES   REMARKS
SIOUX FALLS    PTCLDY    33  31  92 CALM      30.01R
BROOKINGS      NOT AVBL
WATERTOWN      CLEAR     31  29  92 NW3       29.99R
HURON          PTCLDY    30  29  96 NW3       30.02R
SISSETON         N/A     30  29  96 N5        30.00R
ABERDEEN       CLEAR     31  28  89 NW6       30.02R
MITCHELL       PTCLDY    32  29  88 NW7       30.03R
PIERRE         CLEAR     33  27  78 E3        29.97F
MOBRIDGE       CLEAR     35  30  82 SE6       29.96R
RAPID CITY     CLEAR     36  27  69 CALM      29.98F
$$

  *****  SOME WEATHER IN NEARBY STATES *****

CITY           SKY/WX    TMP DP  RH WIND       PRES   REMARKS
GLASGOW MT     CLEAR     35  31  85 SE9       29.85F
GREAT FALLS MT CLEAR     51  29  42 SW15      29.93S
CHEYENNE WY    CLEAR     41  22  46 SW9       30.23S
SCOTTSBLUFF NE CLEAR     40  30  67 NW7       30.12S
OMAHA NE       CLEAR     38  32  79 N9        30.02R
DES MOINES IA  PTCLDY    42  34  73 N9        29.97R
DAVENPORT IA   CLOUDY    32  29  88 CALM      29.88S FOG
CHICAGO IL     LGT SNOW  26  24  92 SE5       29.90S FOG     WCI  20
EAU CLAIRE WI  CLOUDY    27  24  89 CALM      29.90R
LA CROSSE WI   CLOUDY    31  27  85 CALM      29.90R
$$

  *****  SOME NATIONAL WEATHER *****

CITY           SKY/WX    TMP DP  RH WIND       PRES   REMARKS
LA GUARDIA NY  LGT SNOW  25  21  86 N14G24    29.71F VSB 3/4 WCI  13
RALEIGH NC     DRIZZLE   42  36  79 VRB5      29.69S
ATLANTA GA     MOCLDY    35  27  72 NW7       29.91F
NEW ORLEANS LA PTCLDY    48  36  63 W7        30.10S
OKLAHOMA CITY  CLEAR     55  34  45 NW5       30.07S
ALBUQUERQUE NM PTCLDY    46  28  49 CALM      30.34R
SALT LAKE CITY PTCLDY    36  32  85 CALM      30.23S
LOS ANGELES CA RAIN      58  52  80 E5        30.10R
BOISE ID       PTCLDY    34  32  92 CALM      30.16S
SEATTLE WA     PTCLDY    52  47  83 SE7       29.97R
$$

*** WEATHER ACROSS MANITOBA...SASKATCHEWAN AND ONTARIO ***
                ***ONTARIO***

CITY           SKY/WX    TMP DP  RH WIND       PRES   REMARKS
GERALDTON      FLURRIES  18  14  86 SE7       29.97R WCI   8
THUNDER BAY    FLURRIES  19  19 100 NW5       29.96R WCI  13
SIOUX LOOKOUT  FRZ DRZL  21  21 100 NW6       29.93R WCI  14
TORONTO        FLURRIES  14   3  62 NE9       30.00F WCI   2
BIG TROUT LK   MOCLDY     1   0  92 S5        29.88S WCI  -8
PICKLE LAKE    NOT AVBL
DRYDEN         CLOUDY    21  21 100 W7        29.93R FOG     WCI  13
KENORA         LGT SNOW  19  19 100 CALM      29.95R VSB 1
$$
                *** MANITOBA***

CITY           SKY/WX    TMP DP  RH WIND       PRES   REMARKS
BRANDON        FOG       16  14  93 VRB3      29.93R VSB 1/8
DAUPHIN        CLEAR     28  25  86 W3        29.88S
ISLAND LAKE    FLURRIES  14  12  92 SW3       29.86S
PILOT MOUND      N/A     19  19 100 S7          N/A  WCI  10
THE PAS        PTCLDY    18  16  93 SE8       29.79R WCI   7
THOMPSON       LGT SNOW  14  12  92 SW7       29.75S WCI   4
WINNIPEG       PTCLDY    19  16  86 SE6       29.99R WCI  11
LYNN LAKE      CLOUDY    27  27 100 SW9       29.65F FOG     WCI  17
CHURCHILL      FLURRIES   3   1  92 S13       29.65F WCI -14
GILLAM         FLURRIES   9   5  85 SW10G17   29.75F WCI  -6
$$
                ***SASKATCHEWAN***

CITY           SKY/WX    TMP DP  RH WIND       PRES   REMARKS
ESTEVAN        PTCLDY    30  28  93 S9        29.87F WCI  22
KINDERSLEY     MOCLDY    34  30  86 E5        29.76F
LLOYDMINSTER   CLOUDY    37  32  81 W7        29.77F
PRINCE ALBERT  PTCLDY    28  28 100 W2        29.79R
REGINA         MOCLDY    32  30  93 E8        29.85S WCI  25



USA.gov is the U.S. government's official web portal to all federal, state and local government web resources and services.